Regional Weather Roundup
Issued by NWS

Home | Current Version | Previous Version | Graphics & Text | Print | Product List | Glossary On
Versions: 1 2 3 4 5 6 7 8 9 10 11 12 13 14 15 16 17 18 19 20 21 22 23 24 25 26 27 28 29 30 31 32 33 34 35 36 37 38 39 40 41 42 43 44 45 46 47 48 49 50
000
ASUS43 KMKX 300321
RWRWI

WISCONSIN REGIONAL WEATHER ROUNDUP
NATIONAL WEATHER SERVICE MILWAUKEE/SULLIVAN WI
1000 PM CDT WED JUL 29 2015

NOTE: "FAIR" INDICATES FEW OR NO CLOUDS BELOW 12,000 FEET WITH NO
SIGNIFICANT WEATHER AND/OR OBSTRUCTIONS TO VISIBILITY.

WIZ001-002-006>008-014>016-023>028-300400-
NORTHWEST WISCONSIN

CITY           SKY/WX    TMP DP  RH WIND       PRES   REMARKS
SUPERIOR ARPT  CLEAR     68  54  60 SW8       29.84R
ASHLAND        PTCLDY    69  55  60 SW7       29.84R
HAYWARD        PTCLDY    71  52  50 SW7       29.90R
SIREN          CLEAR     70  51  51 W6        29.92R
CUMBERLAND     CLEAR     64  54  68 W7        29.94R
RICE LAKE      CLEAR     67  55  65 W3        29.94R
CHETEK         PTCLDY    69  56  62 SW5       29.93R
LADYSMITH      PTCLDY    69  55  60 W7        29.94R
EAU CLAIRE     CLEAR     69  56  62 SW7       29.94R
MENOMONIE      CLEAR     72  55  55 SW8       29.95R
NEW RICHMOND   CLEAR     69  53  56 W6        29.96R
OSCEOLA        CLEAR     70  55  59 W8        29.97R
$$

WIZ003>005-009-010-017-018-300400-
NORTH CENTRAL WISCONSIN

CITY           SKY/WX    TMP DP  RH WIND       PRES   REMARKS
MANITOWISH WTR MOCLDY    69  55  62 W8        29.88R
ARBOR VITAE    PTCLDY    69  56  63 W9        29.88S
WOODRUFF       PTCLDY    69  56  63 W9        29.88S
RHINELANDER    CLEAR     69  53  56 W10       29.90R
EAGLE RIVER    PTCLDY    69  52  54 W10       29.87S
LAND O LAKES   CLOUDY    71  54  55 W6        29.87S
PHILLIPS       CLEAR     67  55  65 W8        29.90R
TOMAHAWK       CLEAR     67  53  59 SW5       29.92R
MEDFORD        CLEAR     66  55  69 SW6       29.94R
MERRILL        NOT AVBL
$$

WIZ029-030-035-036-043>047-300400-
CENTRAL WISCONSIN

CITY           SKY/WX    TMP DP  RH WIND       PRES   REMARKS
WAUSAU         CLEAR     72  55  55 W10       29.92R
MOSINEE        PTCLDY    66  55  68 SW7       29.95R
MARSHFIELD     CLEAR     68  54  60 W8        29.96R
STEVENS POINT  CLEAR     70  54  55 W9        29.95R
WAUPACA        CLEAR     70  55  59 SW6       29.94R
WAUTOMA        CLEAR     71  53  52 SW7       29.96R
WISC RAPIDS    PTCLDY    70  52  52 W7        29.97R
CAMP DOUGLAS   CLEAR     70  55  60 W9        29.97R
$$

WIZ011>013-019>022-031-037>040-048>050-300400-
NORTHEAST WISCONSIN

CITY           SKY/WX    TMP DP  RH WIND       PRES   REMARKS
ANTIGO         CLEAR     66  55  67 W8        29.92S
SHAWANO        CLEAR     74  54  50 SW5       29.91R
OCONTO         CLEAR     69  56  62 SW7       29.88R
STURGEON BAY   CLEAR     72  55  56 SW7       29.91S
GREEN BAY      CLEAR     71  55  56 SW6       29.91R
MANITOWOC      CLEAR     73  53  49 MISG      29.93R
APPLETON       PTCLDY    72  52  49 SW7       29.94R
CLINTONVILLE   CLEAR     70  54  56 SW6       29.91S
OSHKOSH        CLEAR     72  53  51 CALM      29.94R
$$

WIZ032>034-041-042-053>061-300400-
SOUTHWEST WISCONSIN

CITY           SKY/WX    TMP DP  RH WIND       PRES   REMARKS
LA CROSSE      CLEAR     73  55  53 W6        29.98R
SPARTA         CLEAR     70  53  55 SW3       29.99R
VIROQUA        CLEAR     66  55  67 W7        30.02S
BOSCOBEL       CLEAR     66  58  75 CALM      30.02R
PRAIRIE DU CHI CLEAR     68  56  65 CALM      30.03R
PLATTEVILLE    CLEAR     66  58  73 SW6       30.05R
$$

WIZ056-057-062-063-064-067-068-300400-
SOUTH CENTRAL WISCONSIN

CITY           SKY/WX    TMP DP  RH WIND       PRES   REMARKS
REEDSBURG      CLEAR     70  55  58 SW7       29.99R
BARABOO/DELLS  CLEAR     70  52  52 SW5       30.00R
LONE ROCK      CLEAR     66  57  72 CALM      30.01R
MINERAL POINT  CLEAR     68  54  60 W6        30.04R
MADISON        CLEAR     74  54  49 VRB6      30.00R
MIDDLETON      CLEAR     69  52  54 SW5       30.01R
WATERTOWN      CLEAR     69  55  61 W6        29.99R
MONROE         CLEAR     70  54  56 W12       30.04R
JANESVILLE     CLEAR     72  52  49 W8        30.01R
$$

WIZ051-052-058>065-066-070>072-300400-
SOUTHEAST WISCONSIN

CITY           SKY/WX    TMP DP  RH WIND       PRES   REMARKS
MILWAUKEE      CLEAR     77  51  40 W9        29.98R
WAUKESHA       CLEAR     70  52  52 SW7       30.00R
MILWAUKEE/TIMM CLEAR     72  50  46 SW6       29.99R
RACINE         CLEAR     73  53  49 W7        30.00R
BURLINGTON     CLEAR     67  53  61 W6        30.00R
KENOSHA        CLEAR     66  55  67 SW8       30.00R
FOND DU LAC    CLEAR     70  54  56 SW7       29.96R
SHEBOYGAN      CLEAR     68  55  63 W7        29.94R
WEST BEND      CLEAR     72  50  46 SW3       29.97R
JUNEAU         CLEAR     67  55  66 SW6       29.99R
$$

LSZ147-162-300400-
LAKE SUPERIOR

STATION/POSITION TIME  TEMP    WIND        PRES    WAVE
                       AIR SEA DIR/SP/G            HT/PER
                 (UTC) (F)     (DEG/KT/KT) (MB)    (FT/S)
W MID LAKE BUOY  0250   62 55  240/ 16/ 17 1006.6R   3/ 5
DEVILS ISLAND    0300   68     250/ 23/ 28 1008.1R
PORT WING        0200   73     240/ 12/ 16 1009.5
SAXON HARBOR     0200   73                 1009.1
$$

LMZ867-665-643>646-300400-
LAKE MICHIGAN

STATION/POSITION TIME  TEMP    WIND        PRES    WAVE
                       AIR SEA DIR/SP/G            HT/PER
                 (UTC) (F)     (DEG/KT/KT) (MB)    (FT/S)
CHAMBERS ISLAND  0200   75     210/  5/  9 1010.5R
S GREEN BAY BUOY 0300   71 68  230/ 10/ 12 1013.3R
N MID LAKE BUOY  0250   73 70  240/  8/ 10 1010.2R   2/ 4
NORTHPORT PIER   0200   77     270/  5/ 10 1010.5R
SISTER BAY       0214   76     270/ 10/ 12   N/A
ALGOMA LAKESHORE 0212          260/  3/  6   N/A
KEWAUNEE LAKESHO 0200   77                   N/A
SHEBOYGAN LAKESH 0300   75     240/  5/  6 1013.8R
PORT WASHINGTON  0200   77     250/  4/  8 1014.2R
ATWATER BUOY     0300   73     260/  8/ 10 1016.4R
MILWAUKEE LAKESH 0300   78     260/  8/ 11   N/A
KENOSHA   LAKESH 0300   77     260/ 10/ 14 1014.9R
$$

TC  - TEMPERATURE IN CELSIUS
VSB - VISIBILITY IN STATUTE MILES
WCI - WIND CHILL INDEX
HX  - HEAT INDEX



USA.gov is the U.S. government's official web portal to all federal, state and local government web resources and services.